Location: N�rnberg
(49.4489°N, 11.0797°E)
Time: 21:28:51
(UTC+02:00)

ISS - Visible Passes

Search period start: 25 September 2020 00:00
Search period end: 05 October 2020 00:00
Orbit: 419 x 420 km, 51.6° (Epoch: 26 September)

Date Brightness Start Highest point End Pass type
(mag) Time Alt. Az. Time Alt. Az. Time Alt. Az.
25 Sep -3.4 20:58:20 10° W 21:01:40 56° N 21:02:08 50° NE visible
26 Sep -3.3 20:10:52 10° W 20:14:13 58° N 20:16:31 18° ENE visible
26 Sep -1.5 21:47:51 10° WNW 21:49:28 26° WNW 21:49:28 26° WNW visible
27 Sep -3.7 21:00:26 10° WNW 21:03:48 66° N 21:03:50 66° NNE visible
28 Sep -3.4 20:12:59 10° WNW 20:16:21 59° N 20:18:11 24° E visible
28 Sep -1.2 21:49:53 10° WNW 21:51:09 21° W 21:51:09 21° W visible
29 Sep -3.3 19:25:32 10° W 19:28:52 56° N 19:32:12 10° E visible
29 Sep -3.6 21:02:26 10° WNW 21:05:30 70° W 21:05:30 70° W visible
30 Sep -3.8 20:15:01 10° WNW 20:18:23 80° NNE 20:19:53 31° E visible
30 Sep -0.8 21:52:01 10° W 21:52:51 15° W 21:52:51 15° W visible
01 Oct -3.6 19:27:33 10° WNW 19:30:55 67° NNE 19:34:17 10° E visible
01 Oct -2.7 21:04:27 10° WNW 21:07:15 39° SW 21:07:15 39° SW visible
02 Oct -3.4 20:16:56 10° WNW 20:20:17 60° SSW 20:21:42 30° SE visible
03 Oct -3.7 19:29:28 10° WNW 19:32:51 81° SSW 19:36:12 10° ESE visible
03 Oct -1.6 21:06:45 10° W 21:09:10 20° SW 21:09:10 20° SW visible
04 Oct -2.1 20:19:00 10° W 20:21:59 29° SW 20:23:45 18° SSE visible
